Home   Weather   Davos   Past weeks

Flag for Switzerland Past Weather in Davos, Graubünden, Switzerland — Yesterday and Last 2 Weeks

Now
42 °F

Passing clouds.


Feels Like: 42 °F
Forecast: 8 / 36 °F
Wind: 2 mph from Southwest

Location: Chur

Current Time: Dec 6, 2016 at 5:15:36 pm

Latest Report: Dec 6, 2016 at 4:00 pm


Visibility: 13 mi

Pressure: 30.47 "Hg (25.23 "Hg at 1540m altitude)

Humidity: 52%

Dew Point: 26 °F

Location of DavosLocation

Past Weather in Davos — Graph

°F

Davos Temperature Yesterday

Maximum temperature yesterday: 46 °F (at 2:00 pm)
Minimum temperature yesterday: 30 °F (at 8:00 pm)
Average temperature yesterday: 35 °F

High & Low Weather Summary for the Past Weeks

 TemperatureHumidityPressure
High64 °F (Nov 22, 2:00 pm)97% (Nov 27, 3:00 am)30.66 "Hg (Nov 27, 3:00 am)
Low23 °F (Dec 3, 8:00 am)34% (Dec 5, 2:00 pm)29.74 "Hg (Nov 21, 3:00 pm)
Average41 °F69%30.21 "Hg
* Reported Nov 21 3:00 pm — Dec 6 3:00 pm, Davos, Weather by CustomWeather, © 2016

Note: Actual official high and low records may vary slightly from our data, if they occured in-between our weather recording intervals... More about our weather records

Advertising

Davos Weather History for the Previous 24 Hours

Scroll right to see more
 ConditionsComfort  
Time TempWeatherWind HumidityBarometerVisibility
3:00 pm
Tue, Dec 6
46 °FCool.2 mph42%30.44 "HgN/A
2:00 pm47 °FCool.2 mph36%30.43 "HgN/A
1:00 pm45 °FScattered clouds.3 mph37%30.45 "Hg12 mi
12:00 pm41 °FQuite cool.3 mph44%30.49 "HgN/A
11:00 am38 °FChilly.2 mph48%30.54 "HgN/A
10:00 am33 °FScattered clouds.5 mph55%30.57 "Hg12 mi
9:00 am32 °FChilly.5 mph59%30.55 "HgN/A
8:00 am31 °FChilly.3 mph62%30.55 "HgN/A
7:00 am32 °FPassing clouds.3 mph58%30.53 "Hg10 mi
6:00 am32 °FChilly.3 mph59%30.52 "HgN/A
5:00 am31 °FChilly.3 mph61%30.52 "HgN/A
4:00 am31 °FChilly.6 mph61%30.51 "HgN/A
3:00 am32 °FChilly.6 mph59%30.51 "HgN/A
2:00 am31 °FChilly.7 mph60%30.50 "HgN/A
1:00 am32 °FClear.2 mph60%30.50 "Hg6 mi
12:00 am33 °FChilly.3 mph58%30.49 "HgN/A
11:00 pm
Mon, Dec 5
33 °FChilly.6 mph59%30.49 "HgN/A
10:00 pm32 °FClear.3 mph61%30.48 "Hg6 mi
9:00 pm31 °FChilly.3 mph67%30.48 "HgN/A
8:00 pm30 °FChilly.1 mph73%30.48 "HgN/A
7:00 pm32 °FClear.2 mph69%30.46 "Hg6 mi
6:00 pm33 °FChilly.No wind74%30.44 "HgN/A
5:00 pm36 °FChilly.2 mph63%30.41 "HgN/A
Weather by CustomWeather, © 2016

See weather overviewHow to use our weather pages